STARLINK-31519 (59546 NORAD) Tracking and Keplerian Element Data

This shows tracking and keplerian element data for the satellite.

Feedback or suggestion? Click here.




ElementValue
Catalog59546
NameSTARLINK-31519
Epoch Orbit897
Epoch Day159.93450128
Epoch Year2024
RAAN28.4105
Inclination43.0023
Eccentricity0.0001572
Argument of Perigee290.2123
Mean Anonmoly69.8565
Mean Motion15.40705056
Decay Rate0.00016857
L11 59546U 24074N 24159.93450128 .00016857 00000+0 40985-3 0 9994
L22 59546 43.0023 28.4105 0001572 290.2123 69.8565 15.40705056 8973



Live tracking and technical data element details for STARLINK-31519 (NORAD 59546). STARLINK-31519 can be tracked NOW for your location showing map with azimuth and elevation plus other details from your city location.







IsCatalogInMostPopularTable: catalog: 59546, numindb: 10
Update: records affected: 1



GetName: 59546 STARLINK-31519

Hit Count: updated at: Fri, 14 Jun 2024 17:44:13 GMT